Location: Newark
(35.9031°N, 139.7175°E)
Time: 18:54:08
(UTC+00:00)

Courier 1B Rocket - All Passes

Search period start: 06 June 2020 00:00
Search period end: 16 June 2020 00:00
Orbit: 920 x 1202 km, 28.2° (Epoch: 06 June)

Date Brightness Start Highest point End Pass type
(mag) Time Alt. Az. Time Alt. Az. Time Alt. Az.
06 Jun - 01:21:44 10° WSW 01:26:31 20° SSW 01:31:07 10° SSE daylight
06 Jun - 18:40:12 10° SSW 18:46:25 27° SSE 18:52:27 10° ESE visible
06 Jun - 20:32:26 10° WSW 20:39:34 43° S 20:46:18 10° ESE daylight
06 Jun - 22:25:51 10° WSW 22:32:47 44° S 22:39:16 10° ESE daylight
07 Jun - 00:19:58 10° WSW 00:25:43 27° SSW 00:31:10 10° SE daylight
07 Jun - 17:39:57 10° SSW 17:45:24 21° SSE 17:50:46 10° ESE visible
07 Jun - 19:31:23 10° SW 19:38:27 39° SSE 19:45:14 10° ESE daylight
07 Jun - 21:24:32 10° WSW 21:31:44 47° S 21:38:28 10° ESE daylight
07 Jun - 23:18:24 10° WSW 23:24:50 34° SSW 23:30:52 10° SE daylight
08 Jun - 01:13:53 10° WSW 01:17:28 15° SSW 01:20:57 10° S daylight
08 Jun - 16:40:20 10° S 16:44:25 15° SSE 16:48:29 10° ESE visible
08 Jun - 18:30:32 10° SW 18:37:22 34° SSE 18:44:00 10° ESE visible
08 Jun - 20:23:18 10° WSW 20:30:37 47° S 20:37:33 10° ESE daylight
08 Jun - 22:16:57 10° WSW 22:23:51 41° SSW 22:30:19 10° SE daylight
09 Jun - 00:11:33 10° WSW 00:16:41 21° SSW 00:21:34 10° SSE daylight
09 Jun - 17:29:57 10° SSW 17:36:18 27° SSE 17:42:34 10° ESE visible
09 Jun - 19:22:09 10° WSW 19:29:29 45° S 19:36:31 10° ESE daylight
09 Jun - 21:15:34 10° WSW 21:22:47 45° S 21:29:37 10° ESE daylight
09 Jun - 23:09:44 10° WSW 23:15:49 28° SSW 23:21:34 10° SE daylight
10 Jun - 16:29:44 10° SSW 16:35:16 21° SSE 16:40:48 10° ESE visible
10 Jun - 18:21:09 10° SW 18:28:20 40° SSE 18:35:22 10° E visible
10 Jun - 20:14:16 10° WSW 20:21:40 48° S 20:28:44 10° ESE daylight
10 Jun - 22:08:08 10° W 22:14:52 35° SSW 22:21:13 10° SE daylight
11 Jun - 00:03:37 10° WSW 00:07:34 15° SSW 00:11:26 10° S daylight
11 Jun - 15:30:11 10° S 15:34:18 15° SSE 15:38:27 10° ESE visible
11 Jun - 17:20:21 10° SW 17:27:13 34° SSE 17:34:03 10° E visible
11 Jun - 19:13:03 10° WSW 19:20:30 48° S 19:27:43 10° ESE daylight
11 Jun - 21:06:40 10° W 21:13:49 41° SSW 21:20:37 10° SE daylight
11 Jun - 23:01:17 10° WSW 23:06:45 22° SSW 23:11:58 10° SSE daylight
12 Jun - 16:19:50 10° SSW 16:26:08 28° SSE 16:32:31 10° ESE visible
12 Jun - 18:11:58 10° WSW 18:19:19 45° S 18:26:36 10° ESE visible
12 Jun - 20:05:19 10° WSW 20:12:42 46° S 20:19:49 10° ESE daylight
12 Jun - 21:59:27 10° WSW 22:05:49 29° SSW 22:11:53 10° SE daylight
12 Jun - 23:57:31 10° SW 23:58:26 10° SSW 23:59:21 10° SSW daylight
13 Jun - 15:19:42 10° SSW 15:25:08 21° SSE 15:30:41 10° ESE visible
13 Jun - 17:11:02 10° SW 17:18:09 41° SSE 17:25:21 10° E visible
13 Jun - 19:04:03 10° WSW 19:11:31 49° S 19:18:50 10° ESE daylight
13 Jun - 20:57:52 10° W 21:04:48 36° SSW 21:11:27 10° SE daylight
13 Jun - 22:53:17 10° WSW 22:57:37 16° SSW 23:01:49 10° S daylight
14 Jun - 14:20:15 10° S 14:24:13 15° SSE 14:28:14 10° ESE visible
14 Jun - 16:10:18 10° SW 16:17:02 34° SSE 16:23:56 10° E visible
14 Jun - 18:02:54 10° WSW 18:10:20 48° S 18:17:44 10° ESE visible
14 Jun - 19:56:26 10° W 20:03:41 42° SSW 20:10:45 10° SE daylight
14 Jun - 21:51:00 10° WSW 21:56:42 23° SSW 22:02:13 10° SSE daylight
15 Jun - 15:09:53 10° SSW 15:16:00 28° SSE 15:22:20 10° ESE visible
15 Jun - 17:01:54 10° WSW 17:09:08 45° S 17:16:31 10° ESE visible
15 Jun - 18:55:08 10° WSW 19:02:32 47° S 19:09:51 10° ESE visible
15 Jun - 20:49:12 10° WSW 20:55:43 30° SSW 21:02:04 10° SE daylight
15 Jun - 22:46:43 10° SW 22:48:26 11° SSW 22:50:09 10° SSW daylight
